LRIALRCK

Guest
Details From LRIA - IASI
To LRCK - CONSTANTA - MIHAIL KOGALNICEANU
Flight Number -
Tags generated
Created
Modified
Stats Distance 173 nm / 321 km
Max Altitude 17,500 ft / 5,334 m
Waypoints 3
Social Downloads 0
Likes 0
Share VATSIM

Download

Looking for another format? Having issues loading an existing format? Contact us
Advertisement - Login to hide

Notes

Basic altitude profile: - Ascent Rate: 2500ft/min - Ascent Speed: 250kts - Cruise Altitude: 35000ft - Cruise Speed: 420kts - Descent Rate: 1500ft/min - Descent Speed: 250kts Options: - Use NATs: yes - Use PACOTS: yes - Use low airways: yes - Use high airways: yes

Route

LRIA SORET LRCK

ID Type Via Altitude Latitude Longitude Leg Dist Tot Dist Heading (true) Name
O LRIA APT - 0 ft / 0 m 47.17849˚ 27.62063˚ - 0 nm - IASI
SORET FIX - 17,500 ft / 5,334 m 45.78000˚ 28.15167˚ 86 nm 86 nm 165° / 166° -
O LRCK APT - 0 ft / 0 m 44.36211˚ 28.48845˚ 86 nm 173 nm 170° / 171° CONSTANTA - MIHAIL KOGALNICEANU

Altitude Profile

Advertisement - Login to hide

Weather


0- 5 10 15 20 25 30 35+ Temperature / ° C

Clouds and Precipitation
Forecast for 2018-05-25 18:00 UTC. Updated 4 hours ago

Ground ~20,000 ft ~40,000 ft Winds

LRIA

Details ICAO LRIA (IAS)
Name IASI
Region Romania
Timezone Europe/Bucharest (UTC+3.0)
Stats Elevation 397 ft / 121 m (AMSL)
Location 47.178490° 27.620632°
Runways 1
Magnetic Variation 6.365° E

METAR

LRIA 252100Z 02008KT CAVOK 23/11 Q1019

Decode

TAF

Not found

Departure Runways

ID Width Length Bearing (true) Bearing (mag) Surface Threshold Offset Overrun Length
15 98 ft / 30 m 5,841 ft / 1,780 m 154.46° 148.09° Concrete 0 ft / 0 m 0 ft / 0 m
33 98 ft / 30 m 5,841 ft / 1,780 m 334.46° 328.09° Concrete 0 ft / 0 m 0 ft / 0 m

LRCK

Details ICAO LRCK (CND)
Name CONSTANTA - MIHAIL KOGALNICEANU
Region Romania
Timezone Europe/Bucharest (UTC+3.0)
Stats Elevation 353 ft / 108 m (AMSL)
Location 44.362114° 28.488454°
Runways 1
Magnetic Variation 5.976° E

METAR

LRCK 252100Z 29007KT CAVOK 19/14 Q1015 NOSIG

Decode

TAF

TAF LRCK 251700Z 2518/2618 03006KT CAVOK TEMPO 2608/2615 07015G25KT

Decode

Destination Runways

ID Width Length Bearing (true) Bearing (mag) Surface Threshold Offset Overrun Length
18 148 ft / 45 m 11,455 ft / 3,492 m 185.57° 179.59° Concrete 0 ft / 0 m 0 ft / 0 m
36 148 ft / 45 m 11,455 ft / 3,492 m 5.57° 359.59° Concrete 0 ft / 0 m 0 ft / 0 m

Approach Navaids

Runway Type Ident Frequency Range Bearing (true) Bearing (mag) Slope Elevation
18 Localiser ICT 109.50 MHz 18 nm / 33 km 185.57° 179.60° - 353 ft / 108 m (AMSL)
18 Glidescope ICT 109.50 MHz 10 nm / 19 km 185.57° 179.60° 3.50° 353 ft / 108 m (AMSL)
36 Localiser ICK 110.30 MHz 18 nm / 33 km 5.57° 359.60° - 315 ft / 96 m (AMSL)
36 Glidescope ICK 110.30 MHz 10 nm / 19 km 5.57° 359.60° 2.50° 315 ft / 96 m (AMSL)
36 DME ICK 110.30 MHz 18 nm / 33 km - - - 353 ft / 108 m (AMSL)

Popular Alternatives